Location: La Sioule Rivi�re
(46.3664°N, 3.3197°E)
Time: 12:14:52
(UTC+00:00)

Cosmos 1709 Rocket - Pass Details

Date: 29 October 2020
Orbit: 949 x 1001 km, 82.9° (Epoch: 23 November)

Event Time Altitude Azimuth Distance (km) Brightness Sun altitude
Rises 18:36:33 0° 352° (N) 3,729 7.2 -21.3°
Reaches altitude 10° 18:39:06 10° 354° (N) 2,779 6.5 -21.7°
Maximum altitude 18:45:31 78° 81° (E) 1,026 3.9 -22.8°
Drops below altitude 10° 18:51:53 10° 168° (SSE) 2,761 6.2 -23.9°
Sets 18:54:24 0° 170° (S) 3,703 6.9 -24.4°
